TimeCDT,TemperatureF,Dew PointF,Humidity,Sea Level PressureIn,VisibilityMPH,Wind Direction,Wind SpeedMPH,Gust SpeedMPH,PrecipitationIn,Events,Conditions,WindDirDegrees,DateUTC
12:15 AM,57.2,50.0,77,30.07,10.0,NW,4.6,-,N/A,,Clear,320,2013-06-13 05:15:00
12:36 AM,55.4,50.0,82,30.07,10.0,NW,3.5,-,N/A,,Clear,320,2013-06-13 05:36:00
12:55 AM,57.2,50.0,77,30.08,10.0,Calm,Calm,-,N/A,,Clear,0,2013-06-13 05:55:00
1:15 AM,57.2,50.0,77,30.08,10.0,NNW,3.5,-,N/A,,Clear,330,2013-06-13 06:15:00
1:36 AM,55.4,50.0,82,30.08,10.0,Calm,Calm,-,N/A,,Clear,0,2013-06-13 06:36:00
1:55 AM,55.4,50.0,82,30.10,10.0,NW,6.9,-,N/A,,Clear,310,2013-06-13 06:55:00
2:15 AM,55.4,50.0,82,30.11,10.0,NW,5.8,-,N/A,,Clear,320,2013-06-13 07:15:00
2:35 AM,55.4,50.0,82,30.12,10.0,NW,3.5,-,N/A,,Clear,320,2013-06-13 07:35:00
2:55 AM,55.4,50.0,82,30.12,10.0,NNW,4.6,-,N/A,,Clear,330,2013-06-13 07:55:00
3:16 AM,53.6,50.0,88,30.12,10.0,NNW,4.6,-,N/A,,Clear,330,2013-06-13 08:16:00
3:35 AM,53.6,50.0,88,30.12,10.0,NNW,3.5,-,N/A,,Clear,330,2013-06-13 08:35:00
3:55 AM,53.6,50.0,88,30.11,10.0,Calm,Calm,-,N/A,,Clear,0,2013-06-13 08:55:00
4:16 AM,53.6,50.0,88,30.12,10.0,Calm,Calm,-,N/A,,Clear,0,2013-06-13 09:16:00
4:35 AM,51.8,48.2,88,30.12,10.0,Calm,Calm,-,N/A,,Clear,0,2013-06-13 09:35:00
4:55 AM,51.8,48.2,88,30.11,10.0,Calm,Calm,-,N/A,,Clear,0,2013-06-13 09:55:00
5:16 AM,53.6,50.0,88,30.12,10.0,Calm,Calm,-,N/A,,Clear,0,2013-06-13 10:16:00
5:35 AM,51.8,50.0,94,30.14,10.0,Calm,Calm,-,N/A,,Clear,0,2013-06-13 10:35:00
5:55 AM,51.8,50.0,94,30.13,10.0,NNW,3.5,-,N/A,,Clear,340,2013-06-13 10:55:00
6:16 AM,51.8,50.0,94,30.14,10.0,Calm,Calm,-,N/A,,Clear,0,2013-06-13 11:16:00
6:35 AM,53.6,50.0,88,30.14,10.0,Calm,Calm,-,N/A,,Clear,0,2013-06-13 11:35:00
6:55 AM,55.4,51.8,88,30.13,10.0,Calm,Calm,-,N/A,,Clear,0,2013-06-13 11:55:00
7:16 AM,59.0,51.8,77,30.13,10.0,Calm,Calm,-,N/A,,Clear,0,2013-06-13 12:16:00
7:35 AM,59.0,51.8,77,30.13,10.0,NE,4.6,-,N/A,,Clear,50,2013-06-13 12:35:00
7:55 AM,60.8,51.8,72,30.14,10.0,NE,3.5,-,N/A,,Clear,50,2013-06-13 12:55:00
8:16 AM,60.8,51.8,72,30.14,10.0,East,4.6,-,N/A,,Clear,80,2013-06-13 13:16:00
8:35 AM,62.6,53.6,72,30.14,10.0,ENE,3.5,-,N/A,,Clear,60,2013-06-13 13:35:00
8:55 AM,62.6,53.6,72,30.14,10.0,Calm,Calm,-,N/A,,Clear,0,2013-06-13 13:55:00
9:16 AM,64.4,53.6,68,30.14,10.0,Calm,Calm,-,N/A,,Clear,0,2013-06-13 14:16:00
9:35 AM,66.2,53.6,64,30.14,10.0,Calm,Calm,-,N/A,,Clear,0,2013-06-13 14:35:00
9:55 AM,68.0,53.6,60,30.14,10.0,North,3.5,-,N/A,,Clear,10,2013-06-13 14:55:00
10:16 AM,68.0,51.8,56,30.14,10.0,NE,6.9,-,N/A,,Clear,40,2013-06-13 15:16:00
10:35 AM,68.0,51.8,56,30.15,10.0,Calm,Calm,-,N/A,,Clear,0,2013-06-13 15:35:00
10:55 AM,69.8,51.8,53,30.15,10.0,NNE,5.8,-,N/A,,Clear,20,2013-06-13 15:55:00
11:16 AM,69.8,51.8,53,30.15,10.0,NE,5.8,-,N/A,,Clear,50,2013-06-13 16:16:00
11:35 AM,69.8,51.8,53,30.16,10.0,ENE,4.6,-,N/A,,Clear,60,2013-06-13 16:35:00
11:55 AM,69.8,51.8,53,30.15,10.0,NNE,3.5,-,N/A,,Clear,20,2013-06-13 16:55:00
12:15 PM,69.8,51.8,53,30.15,10.0,Calm,Calm,-,N/A,,Clear,0,2013-06-13 17:15:00
12:35 PM,71.6,50.0,46,30.15,10.0,NE,6.9,-,N/A,,Clear,50,2013-06-13 17:35:00
12:56 PM,71.6,50.0,46,30.15,10.0,NNE,4.6,-,N/A,,Clear,20,2013-06-13 17:56:00
1:15 PM,71.6,50.0,46,30.14,10.0,North,4.6,-,N/A,,Clear,10,2013-06-13 18:15:00
1:35 PM,71.6,50.0,46,30.14,10.0,NNE,5.8,-,N/A,,Clear,20,2013-06-13 18:35:00
1:56 PM,73.4,50.0,44,30.12,10.0,North,4.6,-,N/A,,Clear,360,2013-06-13 18:56:00
2:15 PM,73.4,50.0,44,30.12,10.0,NNE,5.8,-,N/A,,Clear,30,2013-06-13 19:15:00
2:35 PM,73.4,50.0,44,30.12,10.0,ENE,3.5,-,N/A,,Clear,60,2013-06-13 19:35:00
2:56 PM,73.4,51.8,47,30.12,10.0,NE,3.5,-,N/A,,Clear,40,2013-06-13 19:56:00
3:15 PM,73.4,48.2,41,30.11,10.0,South,4.6,-,N/A,,Clear,170,2013-06-13 20:15:00
3:35 PM,75.2,50.0,41,30.10,10.0,Calm,Calm,-,N/A,,Clear,0,2013-06-13 20:35:00
3:56 PM,75.2,46.4,36,30.10,10.0,SE,5.8,-,N/A,,Clear,130,2013-06-13 20:56:00
4:15 PM,75.2,46.4,36,30.10,10.0,NNE,3.5,-,N/A,,Clear,30,2013-06-13 21:15:00
4:35 PM,77.0,50.0,39,30.09,10.0,South,5.8,-,N/A,,Scattered Clouds,190,2013-06-13 21:35:00
4:55 PM,75.2,48.2,38,30.08,10.0,NE,4.6,-,N/A,,Scattered Clouds,40,2013-06-13 21:55:00
5:15 PM,77.0,48.2,36,30.08,10.0,Calm,Calm,-,N/A,,Clear,0,2013-06-13 22:15:00
5:36 PM,77.0,44.6,32,30.07,10.0,ENE,5.8,-,N/A,,Clear,60,2013-06-13 22:36:00
5:55 PM,77.0,46.4,34,30.07,10.0,SSE,4.6,-,N/A,,Clear,160,2013-06-13 22:55:00
6:15 PM,77.0,48.2,36,30.07,10.0,SSE,10.4,-,N/A,,Clear,160,2013-06-13 23:15:00
6:36 PM,77.0,46.4,34,30.07,10.0,SE,8.1,-,N/A,,Clear,130,2013-06-13 23:36:00
6:55 PM,75.2,48.2,38,30.07,10.0,SSE,8.1,-,N/A,,Clear,160,2013-06-13 23:55:00
7:15 PM,75.2,50.0,41,30.07,10.0,SE,6.9,-,N/A,,Clear,140,2013-06-14 00:15:00
7:35 PM,73.4,48.2,41,30.07,10.0,SE,9.2,-,N/A,,Clear,130,2013-06-14 00:35:00
7:55 PM,73.4,48.2,41,30.07,10.0,SE,11.5,-,N/A,,Clear,130,2013-06-14 00:55:00
8:16 PM,73.4,50.0,44,30.06,10.0,SE,9.2,-,N/A,,Clear,130,2013-06-14 01:16:00
8:35 PM,71.6,50.0,46,30.06,10.0,SE,8.1,-,N/A,,Clear,130,2013-06-14 01:35:00
8:55 PM,71.6,50.0,46,30.06,10.0,SE,6.9,-,N/A,,Clear,130,2013-06-14 01:55:00
9:16 PM,69.8,50.0,49,30.06,10.0,ESE,4.6,-,N/A,,Clear,120,2013-06-14 02:16:00
9:35 PM,69.8,51.8,53,30.07,10.0,SE,6.9,-,N/A,,Clear,130,2013-06-14 02:35:00
9:55 PM,69.8,51.8,53,30.08,10.0,SE,5.8,-,N/A,,Clear,130,2013-06-14 02:55:00
10:15 PM,68.0,51.8,56,30.08,10.0,SE,5.8,-,N/A,,Clear,130,2013-06-14 03:15:00
10:35 PM,68.0,51.8,56,30.07,10.0,SE,6.9,-,N/A,,Clear,130,2013-06-14 03:35:00
10:56 PM,68.0,51.8,56,30.07,10.0,SE,8.1,-,N/A,,Clear,140,2013-06-14 03:56:00
11:15 PM,66.2,51.8,60,30.07,10.0,SE,6.9,-,N/A,,Clear,140,2013-06-14 04:15:00
11:35 PM,64.4,51.8,64,30.07,10.0,SE,6.9,-,N/A,,Clear,140,2013-06-14 04:35:00
11:56 PM,64.4,51.8,64,30.07,10.0,SE,6.9,-,N/A,,Clear,140,2013-06-14 04:56:00